This demonstration page uses our WeatherBlox Daily Observations layout. Learn more.

Left ArrowRight Arrow

38.88101, -77.10428

Hourly Observations for May 2, 2021

Temp ( °F °C ) Dew Point ( °F °C ) Humidity (%) Winds ( mph kmh ) Pressure ( in mb ) Visibility ( mi km ) Precip ( " mm )
12:52 am 00:52 Clear 57 13.9 36 2.2 45 45 S 9 15 29.90 1013 10 16 N/A
1:52 am 01:52 Clear 56 13.3 36 2.2 47 47 SW 5 7 29.90 1013 10 16 N/A
2:52 am 02:52 Mostly Clear 55 12.8 37 2.8 51 51 SSW 8 13 29.89 1012 10 16 N/A
3:52 am 03:52 Mostly Cloudy 56 13.3 38 3.3 51 51 SSW 5 7 29.88 1012 10 16 N/A
4:52 am 04:52 Mostly Clear 57 13.9 41 5 55 55 S 12 19 29.87 1012 10 16 N/A
5:52 am 05:52 Mostly Clear 55 12.8 40 4.4 57 57 S 10 17 29.87 1012 10 16 N/A
6:52 am 06:52 Mostly Cloudy 56 13.3 42 5.6 60 60 S 7 11 29.89 1012 10 16 N/A
7:52 am 07:52 Mostly Cloudy 60 15.6 42 5.6 52 52 SSW 8 13 29.90 1012 10 16 N/A
8:52 am 08:52 Mostly Cloudy 63 17.2 42 5.6 47 47 SSW 10 17 29.89 1012 10 16 N/A
9:52 am 09:52 Mostly Cloudy 65 18.3 46 7.8 51 51 S 10 17 29.89 1012 10 16 N/A
10:52 am 10:52 Mostly Cloudy 69 20.6 49 9.4 49 49 S 13 20 29.87 1012 10 16 N/A
11:52 am 11:52 Mostly Cloudy 74 23.3 52 11.1 46 46 S 12 19 29.86 1011 10 16 N/A
12:52 pm 12:52 Mostly Cloudy 80 26.7 48 8.9 33 33 S 10 17 29.85 1011 10 16 N/A
1:52 pm 13:52 Partly Cloudy 81 27.2 52 11.1 37 37 S 14 22 29.83 1010 10 16 N/A
2:52 pm 14:52 Mostly Cloudy 82 27.8 49 9.4 32 32 S 18 30 29.81 1010 10 16 N/A
3:52 pm 15:52 Mostly Cloudy 83 28.3 50 10 32 32 S 16 26 29.80 1009 9 14 N/A
4:52 pm 16:52 Mostly Cloudy 83 28.3 47 8.3 28 28 SSW 20 31 29.79 1009 10 16 N/A
5:52 pm 17:52 Mostly Cloudy 82 27.8 48 8.9 31 31 S 13 20 29.77 1008 10 16 N/A
6:52 pm 18:52 Mostly Cloudy 80 26.7 47 8.3 31 31 S 13 20 29.77 1008 10 16 N/A
7:52 pm 19:52 Mostly Cloudy 75 23.9 52 11.1 45 45 S 10 17 29.78 1008 10 16 N/A
8:52 pm 20:52 Mostly Cloudy 72 22.2 52 11.1 50 50 S 10 17 29.79 1009 10 16 N/A
9:52 pm 21:52 Mostly Cloudy 71 21.7 52 11.1 51 51 S 9 15 29.80 1009 10 16 N/A
10:52 pm 22:52 Cloudy 71 21.7 52 11.1 51 51 S 10 17 29.81 1010 10 16 N/A
11:52 pm 23:52 Cloudy 70 21.1 54 12.2 57 57 S 10 17 29.82 1010 10 16 N/A

Powered by AerisWeather